TimeCEST,TemperatureF,Dew PointF,Humidity,Sea Level PressureIn,VisibilityMPH,Wind Direction,Wind SpeedMPH,Gust SpeedMPH,PrecipitationIn,Events,Conditions,WindDirDegrees,DateUTC
12:55 AM,46.4,33.8,62,30.21,-9999.0,WSW,19.6,-,N/A,,Clear,240,2012-10-06 22:55:00
1:55 AM,46.4,33.8,62,30.21,6.2,WSW,18.4,-,N/A,,Partly Cloudy,240,2012-10-06 23:55:00
2:00 AM,46,35,53,,19,WSW,18.4,,,,Scattered Clouds,240,2012-10-07 00:00:00
2:55 AM,46.4,33.8,62,30.21,6.2,WSW,19.6,-,N/A,,Mostly Cloudy,240,2012-10-07 00:55:00
3:55 AM,46.4,35.6,66,30.18,6.2,WSW,20.7,-,N/A,,Mostly Cloudy,240,2012-10-07 01:55:00
4:55 AM,46.4,39.2,76,30.18,6.2,WSW,18.4,-,N/A,,Mostly Cloudy,240,2012-10-07 02:55:00
5:55 AM,44.6,41.0,87,30.15,6.2,WSW,20.7,-,N/A,,Mostly Cloudy,240,2012-10-07 03:55:00
6:55 AM,44.6,41.0,87,30.15,6.2,WSW,21.9,-,N/A,,Scattered Clouds,240,2012-10-07 04:55:00
7:55 AM,44.6,42.8,93,30.15,6.2,WSW,25.3,-,N/A,,Mostly Cloudy,240,2012-10-07 05:55:00
8:00 AM,45,42,86,,12,WSW,25.3,,,,Mostly Cloudy,240,2012-10-07 06:00:00
8:55 AM,46.4,41.0,81,30.15,6.2,WSW,27.6,-,N/A,,Scattered Clouds,240,2012-10-07 06:55:00
9:55 AM,46.4,41.0,81,30.15,6.2,WSW,20.7,-,N/A,,Overcast,240,2012-10-07 07:55:00
10:55 AM,46.4,42.8,87,30.12,6.2,WSW,29.9,-,N/A,,Scattered Clouds,240,2012-10-07 08:55:00
11:55 AM,46.4,46.4,100,30.12,6.2,WSW,25.3,-,N/A,,Scattered Clouds,240,2012-10-07 09:55:00
12:55 PM,48.2,41.0,76,30.12,6.2,WSW,24.2,-,N/A,,Partly Cloudy,240,2012-10-07 10:55:00
1:55 PM,50.0,42.8,76,30.12,6.2,WSW,23.0,-,N/A,,Partly Cloudy,240,2012-10-07 11:55:00
2:00 PM,49,42,69,,12,WSW,23.0,,,,Scattered Clouds,240,2012-10-07 12:00:00
2:55 PM,50.0,44.6,82,30.12,6.2,WSW,26.5,-,N/A,,Partly Cloudy,240,2012-10-07 12:55:00
3:55 PM,48.2,46.4,93,30.12,0.1,WSW,28.8,-,N/A,Fog,Fog,240,2012-10-07 13:55:00
4:55 PM,48.2,44.6,87,30.12,6.2,WSW,27.6,-,N/A,,Mostly Cloudy,240,2012-10-07 14:55:00
5:55 PM,48.2,44.6,87,30.12,6.2,WSW,24.2,-,N/A,,Scattered Clouds,240,2012-10-07 15:55:00
6:55 PM,48.2,44.6,87,30.12,6.2,WSW,23.0,-,N/A,,Mostly Cloudy,240,2012-10-07 16:55:00
7:55 PM,48.2,44.6,87,30.15,6.2,WSW,21.9,-,N/A,,Scattered Clouds,240,2012-10-07 17:55:00
8:00 PM,47,44,85,,19,WSW,21.9,,,,Partly Cloudy,240,2012-10-07 18:00:00
8:55 PM,50.0,39.2,66,30.15,6.2,North,16.1,-,N/A,,Partly Cloudy,350,2012-10-07 18:55:00
9:55 PM,50.0,33.8,54,30.15,6.2,North,13.8,-,N/A,,Partly Cloudy,350,2012-10-07 19:55:00
10:55 PM,50.0,39.2,66,30.18,6.2,North,13.8,-,N/A,,Partly Cloudy,350,2012-10-07 20:55:00
11:55 PM,48.2,39.2,71,30.18,6.2,North,12.7,-,N/A,,Partly Cloudy,350,2012-10-07 21:55:00